Springfield, VT

11:05 PM EST on January 20, 2018 (GMT -0500)
Hartness State

Weather History for KVSF - March, 2013

Change the Weather History Date:

Wednesday, March 20, 2013

  Actual Average Record
Temperature  
Mean Temperature 24 °F 33 °F  
Max Temperature 33 °F 43 °F 80 °F (2012)
Min Temperature 15 °F 22 °F 12 °F (2004)
Degree Days  
Heating Degree Days 41 32  
Month to date heating degree days 679 707  
Since 1 July heating degree days 5531 6152  
Cooling Degree Days 0 0  
Month to date cooling degree days 0 0  
Year to date cooling degree days 0 0  
Moisture  
Dew Point 17 °F    
Average Humidity 63    
Maximum Humidity 77    
Minimum Humidity 49    
Precipitation  
Precipitation T in 0.14 in 0.71 in (2002)
Month to date precipitation 1.69 1.79  
Year to date precipitation 4.80 7.40  
Sea Level Pressure  
Sea Level Pressure 29.73 in    
Wind  
Wind Speed 6 mph (WSW)    
Max Wind Speed 16 mph    
Max Gust Speed 24 mph    
Visibility 9 miles    
Events Snow    
T = Trace of Precipitation, MM = Missing Value Source: NWS Daily Summary

Daily Weather History Graph

Daily Weather History Graph

Search for Another Location

Airport or City:

Trip Planner

Search our weather history database for the weather conditions in past years. The results will help you decide how hot, cold, wet, or windy it might be!

Date:

Astronomy

Mar. 20, 2013 Rise Set
Actual Time 6:52 AM EDT 7:02 PM EDT
Civil Twilight 6:24 AM EDT 7:31 PM EDT
Nautical Twilight 5:51 AM EDT 8:04 PM EDT
Astronomical Twilight 5:17 AM EDT 8:38 PM EDT
Moon 12:26 PM EDT (3/20) 2:39 AM EDT (3/20)
Length of Visible Light 13h 06m
Length of Day
12h 09m
First Quarter, 59% of the Moon is Illuminated
Mar 20
First Quarter
Mar 27
Full
Apr 3
Last Quarter
Apr 10
New
Apr 18
First Quarter

Hourly Weather History & Observations

Time (EDT) Temp. Windchill Dew Point Humidity Pressure Visibility Wind Dir Wind Speed Gust Speed Precip Events Conditions
12:16 AM 24.8 °F - 21.2 °F 86% 29.72 in 4.0 mi Calm Calm - 0.01 in Snow Light Snow
12:27 AM 24.8 °F - 21.2 °F 86% 29.72 in 8.0 mi Calm Calm - 0.01 in Snow Light Snow
12:54 AM 25.0 °F - 21.9 °F 88% 29.73 in 10.0 mi Calm Calm - 0.01 in   Overcast
1:54 AM 25.0 °F - 21.9 °F 88% 29.72 in 5.0 mi Calm Calm - 0.00 in Snow Light Snow
2:13 AM 24.8 °F - 21.2 °F 86% 29.69 in 4.0 mi Calm Calm - 0.00 in Snow Light Snow
2:54 AM 21.0 °F 16.2 °F 19.0 °F 92% 29.71 in 9.0 mi West 3.5 mph - 0.00 in   Overcast
3:54 AM 24.1 °F 19.7 °F 17.1 °F 75% 29.70 in 10.0 mi WSW 3.5 mph - N/A   Overcast
4:54 AM 24.1 °F 13.1 °F 17.1 °F 75% 29.70 in 8.0 mi West 11.5 mph - N/A   Overcast
5:30 AM 23.0 °F 13.1 °F 15.8 °F 74% 29.68 in 10.0 mi West 9.2 mph - N/A   Mostly Cloudy
5:40 AM 23.0 °F 12.4 °F 15.8 °F 74% 29.68 in 10.0 mi West 10.4 mph - N/A   Mostly Cloudy
5:54 AM 23.0 °F 10.6 °F 16.0 °F 74% 29.71 in 10.0 mi West 13.8 mph - N/A   Mostly Cloudy
6:54 AM 23.0 °F 18.4 °F 14.0 °F 68% 29.74 in 10.0 mi SW 3.5 mph - N/A   Partly Cloudy
7:54 AM 21.9 °F 15.7 °F 15.1 °F 75% 29.75 in 10.0 mi SW 4.6 mph - N/A   Mostly Cloudy
8:54 AM 23.0 °F - 16.0 °F 74% 29.74 in 10.0 mi Calm Calm - N/A   Mostly Cloudy
9:54 AM 27.0 °F 21.6 °F 16.0 °F 63% 29.73 in 10.0 mi WNW 4.6 mph - N/A   Overcast
10:54 AM 28.0 °F 20.8 °F 15.1 °F 58% 29.74 in 10.0 mi West 6.9 mph - N/A   Overcast
11:54 AM 28.0 °F 17.0 °F 15.1 °F 58% 29.75 in 10.0 mi West 13.8 mph - N/A   Overcast
12:54 PM 30.0 °F 19.5 °F 15.1 °F 54% 29.73 in 10.0 mi West 13.8 mph 20.7 mph N/A   Overcast
1:54 PM 30.0 °F 23.2 °F 17.1 °F 59% 29.73 in 10.0 mi WSW 6.9 mph - N/A   Overcast
2:54 PM 30.9 °F 22.2 °F 17.1 °F 57% 29.71 in 10.0 mi WSW 10.4 mph 19.6 mph N/A   Overcast
3:54 PM 33.1 °F 25.5 °F 18.0 °F 54% 29.71 in 10.0 mi SW 9.2 mph 17.3 mph N/A   Overcast
4:54 PM 30.9 °F 25.2 °F 21.0 °F 67% 29.73 in 8.0 mi South 5.8 mph - 0.00 in   Overcast
5:54 PM 32.0 °F 24.2 °F 17.1 °F 54% 29.73 in 10.0 mi WSW 9.2 mph - N/A   Overcast
6:54 PM 30.9 °F 22.8 °F 14.0 °F 50% 29.75 in 10.0 mi SW 9.2 mph 18.4 mph N/A   Mostly Cloudy
7:54 PM 30.0 °F 22.4 °F 14.0 °F 51% 29.77 in 10.0 mi WSW 8.1 mph - N/A   Clear
8:54 PM 27.0 °F - 14.0 °F 58% 29.77 in 10.0 mi Calm Calm - N/A   Clear
9:54 PM 21.9 °F 17.2 °F 16.0 °F 78% 29.78 in 10.0 mi West 3.5 mph - N/A   Clear
10:54 PM 19.0 °F - 14.0 °F 81% 29.78 in 10.0 mi Calm Calm - N/A   Clear
11:54 PM 19.0 °F - 12.9 °F 77% 29.79 in 10.0 mi Calm Calm - N/A   Clear